#timestamp,LO_Frequency,Hit,StdDev 
1606712415.6,286047000.8,N
1606712435.5,286046999.3,N
1606712455.3,286046997.1,N
1606712475.2,286046999.0,N
1606712495.9,286046999.0,N
1606712515.7,286046999.4,N
1606712535.6,286047000.8,N
1606712555.4,286046998.7,N
1606712575.2,286046998.6,N
1606712595.1,286047000.5,N
1606712596.0,286047000.5,N
1606712615.8,286046998.9,N
1606712635.7,286046999.2,N
1606712655.5,286046997.2,N
1606712675.3,286046998.8,N
1606712695.2,286046997.4,N
1606712715.0,286046998.0,N
1606712715.9,286046998.0,N
1606712735.7,286046997.6,N
1606712755.6,286046994.9,Y
1606712775.4,286046999.2,P
1606712795.3,286046998.8,P
1606712815.1,286046998.8,P
1606712816.0,286046998.8,Y
1606712835.8,286046999.5,P
1606712855.7,286046995.3,P
1606712875.5,286046996.7,N
1606712895.4,286046998.8,N
1606712915.2,286047000.0,N
1606712935.0,286046996.6,N
1606712935.9,286046996.6,N
1606712955.8,286046999.1,N
1606712975.6,286046999.4,N
1606712995.4,286046995.3,Y
1606713015.3,286047001.1,P
1606713035.1,286047001.0,N
1606713055.9,286046999.9,N
1606713075.7,286047001.4,N
1606713095.5,286047001.5,N
1606713115.4,286047001.9,N
1606713135.2,286047004.2,Y
1606713155.0,286047002.6,P
1606713155.9,286047002.6,N
1606713175.8,286047000.1,N
1606713195.6,286047002.2,N
1606713215.5,286046999.8,N
1606713235.3,286047002.5,N
1606713255.1,286047002.8,N
1606713275.9,286047002.5,N
1606713295.7,286047002.8,N
1606713315.5,286047001.9,N
1606713335.4,286047002.4,N
1606713355.2,286047000.4,N
1606713375.1,286047001.0,N
1606713376.0,286047001.0,N
1606713395.8,286046998.5,N
1606713415.6,286046998.5,N
1606713435.5,286046998.7,N
1606713455.3,286046997.1,N
1606713475.1,286046996.9,N
1606713495.9,286046997.5,N
1606713515.7,286046997.8,N
1606713535.6,286046998.0,N
1606713555.4,286046995.8,N
1606713575.2,286046996.8,N
1606713595.1,286046997.3,N
1606713596.0,286046997.3,N
1606713615.8,286046997.4,N
1606713635.6,286046996.7,N
1606713655.5,286046999.5,N
1606713675.3,286046999.6,N
1606713695.1,286046995.1,N
1606713715.9,286046998.8,N
1606713735.7,286046997.5,N
1606713755.6,286046996.6,N
1606713775.4,286046998.7,N
1606713795.2,286046998.5,N
1606713815.1,286046997.2,N
1606713816.0,286046997.2,N
1606713835.8,286046995.5,N
1606713855.6,286046998.0,N
1606713875.5,286046995.3,N
1606713895.3,286046995.0,Y
1606713915.2,286046997.3,P
1606713935.9,286046996.9,P
1606713955.7,286046996.9,P
1606713975.6,286046996.1,Y
1606713995.4,286046999.4,P
1606714015.3,286046998.6,N
1606714035.1,286046998.2,N
1606714036.0,286046998.2,N
1606714055.8,286046998.3,N
1606714075.7,286046998.4,N
1606714095.5,286047000.6,N
1606714115.3,286046998.5,N
1606714135.2,286047001.0,N
1606714155.0,286047000.4,N
1606714155.9,286047000.4,N
1606714175.8,286046999.9,N
1606714195.6,286047001.1,N
1606714215.4,286047000.5,N
1606714235.3,286047000.4,N
1606714255.1,286047002.3,N
1606714275.8,286046999.8,N
1606714295.7,286047000.2,N
1606714315.5,286047002.8,N
1606714335.4,286047001.0,N
1606714355.2,286046999.8,N
1606714375.0,286047000.0,N
1606714375.9,286047000.0,N
1606714395.8,286047000.1,N
1606714415.6,286047002.0,N
1606714435.4,286047002.8,N
1606714455.3,286047002.0,N
1606714475.1,286047001.8,N
1606714495.9,286047001.9,N
1606714515.7,286047002.1,N
1606714535.5,286047002.1,N
1606714555.4,286047004.1,N
1606714575.2,286047001.4,N
1606714595.0,286047002.5,N
1606714595.9,286047002.5,N
1606714615.8,286047002.8,N
1606714635.6,286047002.5,N
1606714655.5,286047000.7,N
1606714675.3,286046998.9,N
1606714695.1,286047002.5,N
1606714715.9,286047001.6,N
1606714735.7,286046999.9,N
1606714755.5,286047000.1,N
1606714775.4,286047000.4,N
1606714795.2,286047000.6,N
1606714815.0,286046999.3,N
1606714816.0,286046999.3,N
1606714835.8,286046998.4,N
1606714855.6,286046998.3,N
1606714875.5,286047000.7,N
1606714895.3,286047000.8,N
1606714915.1,286047002.6,N
1606714935.9,286046999.9,N
1606714955.7,286047000.9,N
1606714975.6,286047000.2,N
1606714995.4,286047002.1,N
1606715015.2,286047001.4,N
1606715035.1,286047001.6,N
1606715036.0,286047001.6,N
1606715055.8,286047002.6,N
1606715075.6,286046999.7,N
1606715095.5,286047001.6,N
1606715115.3,286047002.1,N
1606715135.1,286047002.8,N
1606715155.9,286047001.8,N
1606715175.7,286046999.7,N
1606715195.6,286047002.8,N
1606715215.4,286047002.8,N
1606715235.2,286047002.0,N
1606715255.1,286047004.3,Y
1606715256.0,286047004.3,P
1606715275.8,286047002.2,N
1606715295.6,286047002.2,N
1606715315.5,286047000.1,N
1606715335.3,286047001.1,N
1606715355.2,286047001.2,N
1606715375.9,286047001.1,N
1606715395.7,286047000.5,N
1606715415.6,286047002.5,N
1606715435.4,286047000.2,N
1606715455.2,286046999.9,N
1606715475.1,286047001.8,N
1606715476.0,286047001.8,N
1606715495.8,286047002.1,N
1606715515.7,286047004.3,Y
1606715535.5,286047000.3,P
1606715555.3,286047001.0,N
1606715575.2,286047001.0,N
1606715595.0,286046998.3,Y
1606715595.9,286046998.3,P
1606715615.8,286046996.9,N
1606715635.6,286046994.9,P
1606715655.4,286046999.4,N
1606715675.3,286046999.1,N
1606715695.1,286046996.9,N
1606715696.0,286046996.9,N
1606715715.8,286046996.0,N
1606715735.7,286046993.7,Y
1606715755.5,286046997.6,P
1606715775.4,286046996.5,P
1606715795.2,286046995.0,P
1606715815.0,286046996.7,Y
1606715815.9,286046996.7,P
1606715835.8,286047000.3,P
1606715855.6,286047001.9,N
1606715875.4,286047002.2,N
1606715895.3,286047001.5,N
1606715915.1,286047004.1,N
1606715935.9,286047001.9,N
1606715955.7,286047001.7,N
1606715975.5,286047004.2,N
1606715995.4,286047005.8,N
